TimeEDT,TemperatureF,Dew PointF,Humidity,Sea Level PressureIn,VisibilityMPH,Wind Direction,Wind SpeedMPH,Gust SpeedMPH,PrecipitationIn,Events,Conditions,WindDirDegrees,DateUTC
12:53 AM,62.1,55.0,78,30.03,10.0,NNE,4.6,-,N/A,,Mostly Cloudy,20,2013-07-25 04:53:00
1:53 AM,60.1,55.0,83,30.03,10.0,Calm,Calm,-,N/A,,Mostly Cloudy,0,2013-07-25 05:53:00
2:53 AM,57.0,55.0,93,30.04,10.0,Calm,Calm,-,N/A,,Clear,0,2013-07-25 06:53:00
3:53 AM,55.9,54.0,93,30.03,10.0,Calm,Calm,-,N/A,,Clear,0,2013-07-25 07:53:00
4:53 AM,54.0,53.1,97,30.03,10.0,Calm,Calm,-,N/A,,Clear,0,2013-07-25 08:53:00
5:53 AM,55.0,53.1,93,30.04,10.0,Calm,Calm,-,N/A,,Clear,0,2013-07-25 09:53:00
6:53 AM,55.0,53.1,93,30.06,10.0,Calm,Calm,-,N/A,,Clear,0,2013-07-25 10:53:00
7:53 AM,60.1,54.0,80,30.07,10.0,NE,4.6,-,N/A,,Clear,40,2013-07-25 11:53:00
8:53 AM,63.0,55.0,75,30.08,10.0,NE,4.6,-,N/A,,Clear,50,2013-07-25 12:53:00
9:53 AM,66.0,55.0,68,30.09,10.0,ENE,4.6,-,N/A,,Clear,60,2013-07-25 13:53:00
10:53 AM,70.0,55.9,61,30.09,10.0,North,6.9,-,N/A,,Clear,10,2013-07-25 14:53:00
11:53 AM,73.0,55.9,55,30.10,10.0,NNE,8.1,-,N/A,,Partly Cloudy,20,2013-07-25 15:53:00
12:53 PM,73.0,55.9,55,30.09,10.0,NNW,6.9,-,N/A,,Scattered Clouds,340,2013-07-25 16:53:00
1:53 PM,73.9,53.1,48,30.09,10.0,Calm,Calm,-,N/A,,Clear,0,2013-07-25 17:53:00
2:53 PM,75.9,54.0,46,30.09,10.0,Calm,Calm,-,N/A,,Clear,0,2013-07-25 18:53:00
3:53 PM,75.9,53.1,45,30.09,10.0,Variable,5.8,-,N/A,,Clear,0,2013-07-25 19:53:00
4:53 PM,78.1,55.0,45,30.09,10.0,Calm,Calm,-,N/A,,Clear,0,2013-07-25 20:53:00
5:53 PM,78.1,55.0,45,30.07,10.0,NNE,9.2,-,N/A,,Clear,20,2013-07-25 21:53:00
6:53 PM,77.0,55.9,48,30.07,10.0,Calm,Calm,-,N/A,,Clear,0,2013-07-25 22:53:00
7:53 PM,75.0,57.0,53,30.08,10.0,NNW,4.6,-,N/A,,Clear,330,2013-07-25 23:53:00
8:53 PM,68.0,59.0,73,30.09,10.0,North,3.5,-,N/A,,Clear,350,2013-07-26 00:53:00
9:53 PM,63.0,59.0,87,30.08,10.0,Calm,Calm,-,N/A,,Clear,0,2013-07-26 01:53:00
10:53 PM,61.0,57.9,90,30.09,10.0,Calm,Calm,-,N/A,,Clear,0,2013-07-26 02:53:00
11:53 PM,60.1,57.9,93,30.10,10.0,Calm,Calm,-,N/A,,Clear,0,2013-07-26 03:53:00